カタログに戻る

STARLINK-32447

運用中通信VLEO
NORAD 61261·PAYLOAD·🇺🇸 United States

打ち上げ Sep 25, 2024 から Vandenberg Space Force Base

Loading…

次のパス (今後24時間)

TLE

最新Source: CelesTrak SupGP

元期: Sep 14, 2026, 20:46 UTC

1 61261C 24175U   26257.86576389  .00025036  00000+0  74006-3 0  2571
2 61261  53.1589  32.1854 0001229  82.2017 208.8964 15.34362007    15

AllMySatでSTARLINK-32447をリアルタイム追跡

Download on the App Store